[[{"header":{"parameterUnit":"m.s-1","parameterCategory":1,"la1":30.2991,"la2":30.254,"lo1":-89.0895,"lo2":-89.0444,"dy":0.0017,"dx":0.0017,"nx":28,"ny":28,"refTime":"2024-10-08T03:00:00:Z","depth":0,"parameterNumber":2,"parameterNumberName":"U-component_of_WINDS"},"data":[0,0,0,0,0,0,0,0,0,0,0,0,0,0,0,0,0,0,0,0,0,0,0,0,0,0,0,0,0,0,0,0,0,0,0,0,0,0,0,0,0,0,0,0,0,0,0,0,0,0,0,0,0,0,0,0,0,0,-2.0269,-2.027,0,-2.0357,-2.0358,-2.0359,-2.0303,-2.03,-2.0297,-2.0295,-2.0388,-2.0393,-2.0398,0,0,0,0,0,0,0,0,0,0,0,0,0,-2.0053,-2.0057,-2.0268,-2.027,-2.0271,-2.0357,-2.0358,-2.0359,-2.0303,-2.03,-2.0297,-2.0294,-2.0386,-2.0392,-2.0398,0,0,0,0,0,0,0,0,0,0,0,0,0,-2.0145,-2.0059,-2.0268,-2.0253,-2.0252,-2.0356,-2.0358,-2.0359,-2.0304,-2.03,-2.0296,-2.0292,-2.0385,-2.0392,-2.0399,-2.0524,0,0,-2.0422,-2.0425,0,0,0,0,0,0,0,0,-2.014,-2.0153,-2.0254,-2.0254,-2.0254,-2.0315,-2.0316,-2.0415,-2.0305,-2.0284,-2.0295,-2.029,-2.0367,-2.0376,-2.0401,-2.0528,-2.0532,-2.0422,-2.0427,-2.043,-2.0432,0,0,0,0,0,0,0,-2.0133,-2.0149,-2.0303,-2.0256,-2.0256,-2.0242,-2.0251,-2.0335,-2.0347,-2.0286,-2.0282,-2.0293,-2.0366,-2.0394,-2.0403,-2.0534,-2.0422,-2.0429,-2.0433,-2.0436,-2.0768,-2.0772,0,0,0,0,0,0,-2.0128,-2.0144,-2.0301,-2.0306,-2.0186,-2.0249,-2.0259,-2.0299,-2.0346,-2.0349,-2.0296,-2.029,-2.0383,-2.0394,-2.0406,-2.0556,-2.043,-2.0437,-2.0441,-2.0764,-2.0769,-2.0774,0,0,0,0,0,0,-2.0123,-2.0142,-2.0297,-2.0224,-2.0243,-2.0257,-2.0303,-2.0303,-2.0331,-2.0354,-2.0356,-2.0322,-2.0381,-2.0395,-2.0495,-2.0558,-2.044,-2.0447,-2.0759,-2.0766,-2.0772,-2.0857,0,0,0,0,0,0,-2.0118,-2.0141,-2.0188,-2.0225,-2.0247,-2.0385,-2.0307,-2.0308,-2.0343,-2.0336,-2.0379,-2.0382,-2.0379,-2.0484,-2.0502,-2.0566,-2.0453,-2.0753,-2.0762,-2.077,-2.0849,-2.0866,-2.088,0,0,0,0,0,-2.011,-2.0209,-2.0191,-2.021,-2.0306,-2.0388,-2.0401,-2.0394,-2.0349,-2.0397,-2.0411,-2.0381,-2.0548,-2.0495,-2.0515,-2.0582,-2.0749,-2.0759,-2.0769,-2.0841,-2.0862,-2.088,0,0,0,0,0,0,-2.0181,-2.0214,-2.0194,-2.0308,-2.0346,-2.0379,-2.0439,-2.0416,-2.0468,-2.0459,-2.0449,-2.0459,-2.0564,-2.0582,-2.0522,-2.0706,-2.0642,-2.0656,-2.069,-2.071,-2.0725,-2.072,-2.0459,0,0,0,0,0,-2.0209,-2.0273,-2.0298,-2.0397,-2.0416,-2.0425,-2.046,-2.0451,-2.049,-2.0506,-2.0528,-2.0568,-2.0629,-2.067,-2.0728,-2.085,-2.0859,-2.0906,-2.0922,-2.0935,-2.0948,-2.1015,-2.1037,-2.0806,-2.0806,-2.0806,0,0,-2.027,-2.0296,-2.0336,-2.0411,-2.044,-2.0506,-2.0438,-2.0512,-2.0561,-2.0518,-2.0613,-2.0631,-2.0674,-2.0786,-2.0836,-2.0805,-2.1013,-2.0947,-2.0958,-2.0964,-2.1028,-2.1049,-2.1069,-2.0813,-2.0812,-2.0811,0,0,-2.0414,-2.0439,-2.0524,-2.0554,-2.0596,-2.0601,-2.0621,-2.0658,-2.0668,-2.0763,-2.0731,-2.079,-2.0896,-2.0929,-2.0959,-2.1115,-2.1089,-2.1134,-2.1218,-2.1283,-2.1301,-2.1317,-2.1374,-2.1395,-2.1146,-2.1147,-2.1147,0,-2.0484,-2.0583,-2.0571,-2.0647,-2.0682,-2.0643,-2.073,-2.0759,-2.0819,-2.0844,-2.0808,-2.094,-2.0966,-2.1085,-2.1123,-2.1149,-2.1173,-2.113,-2.1299,-2.1315,-2.133,-2.1385,-2.1406,-2.1152,-2.1151,-2.1151,-2.115,0,-2.0667,-2.0736,-2.08,-2.0858,-2.0899,-2.098,-2.0982,-2.1025,-2.1012,-2.1021,-2.1119,-2.1149,-2.1212,-2.1239,-2.1228,-2.1357,-2.1337,-2.13,-2.1236,-2.1358,-2.1409,-2.1429,-2.116,-2.1158,-2.1156,-2.1155,0,0,-2.0861,-2.0911,-2.0934,-2.0961,-2.1005,-2.1058,-2.1137,-2.1198,-2.1236,-2.1278,-2.1345,-2.1435,-2.1401,-2.1436,-2.1428,-2.1485,-2.1608,-2.1441,-2.1442,-2.1473,-2.1754,-2.1783,-2.1807,-2.159,-2.1594,-2.1597,-2.1751,0,-2.1009,-2.1147,-2.1139,-2.1268,-2.1332,-2.1296,-2.1365,-2.14,-2.141,-2.1466,-2.1477,-2.1542,-2.1491,-2.1512,-2.1567,-2.1582,-2.1665,-2.157,-2.1654,-2.1657,-2.1647,-2.1833,-2.1865,-2.2008,-2.177,-2.1774,-2.1776,0,-2.1201,-2.1249,-2.1386,-2.142,-2.1447,-2.1509,-2.1564,-2.1618,-2.1657,-2.166,-2.1698,-2.168,-2.1761,-2.1693,-2.1805,-2.1741,-2.1774,-2.1787,-2.1792,-2.1801,-2.1726,-2.185,-2.2054,-2.2076,-2.1807,-2.1805,-2.1803,0,-2.1331,-2.143,-2.1524,-2.1547,-2.159,-2.1634,-2.1654,-2.1689,-2.1726,-2.1774,-2.1799,-2.1856,-2.1888,-2.1933,-2.1932,-2.1882,-2.2046,-2.1977,-2.2052,-2.2053,-2.2091,-2.2089,-2.2305,-2.2109,-2.2108,-2.2108,-2.2107,0,-2.1499,-2.1584,-2.1583,-2.1642,-2.1736,-2.1725,-2.1819,-2.1834,-2.1865,-2.1927,-2.1898,-2.1956,-2.195,-2.2009,-2.2008,-2.2101,-2.2115,-2.2121,-2.2121,-2.2125,-2.2125,-2.2149,-2.214,-2.2114,-2.2112,-2.2111,-2.211,0,-2.1661,-2.1664,-2.1764,-2.1795,-2.1805,-2.1874,-2.1901,-2.1956,-2.1963,-2.2041,-2.2058,-2.2069,-2.2137,-2.2139,-2.2217,-2.2216,-2.2331,-2.2318,-2.2318,-2.2316,-2.2392,-2.2386,-2.2633,-2.2665,-2.2446,-2.2448,-2.245,0,-2.177,-2.1834,-2.1872,-2.191,-2.1933,-2.1995,-2.2033,-2.2024,-2.2065,-2.2114,-2.2164,-2.2228,-2.228,-2.239,-2.2405,-2.2465,-2.2454,-2.2537,-2.2463,-2.2466,-2.2458,-2.2455,-2.2462,-2.2552,-2.2554,-2.2556,-2.2558,0,-2.1962,-2.196,-2.2015,-2.2071,-2.2116,-2.216,-2.22,-2.2233,-2.2229,-2.2277,-2.2345,-2.2385,-2.2464,-2.2529,-2.2586,-2.2607,-2.2583,-2.258,-2.2601,-2.2608,-2.2606,-2.261,-2.236,-2.2576,-2.2574,-2.2573,-2.2572,-2.2571,-2.2102,-2.2158,-2.2193,-2.2256,-2.2285,-2.2323,-2.2377,-2.239,-2.2446,-2.2509,-2.2501,-2.2577,-2.2614,-2.2689,-2.2714,-2.2775,-2.2746,-2.2776,-2.2784,-2.2792,-2.2801,-2.2595,-2.2785,-2.2784,-2.2784,-2.2784,-2.2783,0,-2.2294,-2.2315,-2.2372,-2.2429,-2.2478,-2.2449,-2.2492,-2.2536,-2.2603,-2.2639,-2.269,-2.2769,-2.2832,-2.2851,-2.2912,-2.2957,-2.2947,-2.2973,-2.2971,-2.2977,-2.2822,-2.2799,-2.298,-2.298,-2.298,-2.298,-2.298,-2.298,-2.2401,-2.2494,-2.2496,-2.2604,-2.2624,-2.2698,-2.2725,-2.2761,-2.2789,-2.2878,-2.293,-2.2942,-2.2972,-2.3035,-2.3091,-2.3095,-2.312,-2.3151,-2.3151,-2.3007,-2.2988,-2.2969,-2.2947,-2.3156,-2.3157,-2.3301,-2.3302,-2.3304]},{"header":{"parameterUnit":"m.s-1","parameterCategory":1,"la1":30.2991,"la2":30.254,"lo1":-89.0895,"lo2":-89.0444,"dy":0.0017,"dx":0.0017,"nx":28,"ny":28,"refTime":"2024-10-08T03:00:00:Z","depth":0,"parameterNumber":3,"parameterNumberName":"V-component_of_WINDS"},"data":[0,0,0,0,0,0,0,0,0,0,0,0,0,0,0,0,0,0,0,0,0,0,0,0,0,0,0,0,0,0,0,0,0,0,0,0,0,0,0,0,0,0,0,0,0,0,0,0,0,0,0,0,0,0,0,0,0,0,-5.314,-5.3141,0,-5.3185,-5.3185,-5.3186,-5.3097,-5.3094,-5.3091,-5.3088,-5.313,-5.3134,-5.3138,0,0,0,0,0,0,0,0,0,0,0,0,0,-5.2973,-5.2977,-5.314,-5.3141,-5.3141,-5.3185,-5.3185,-5.3186,-5.3097,-5.3094,-5.309,-5.3087,-5.3129,-5.3134,-5.3138,0,0,0,0,0,0,0,0,0,0,0,0,0,-5.3035,-5.2978,-5.314,-5.3102,-5.3099,-5.3185,-5.3185,-5.3186,-5.3098,-5.3094,-5.3089,-5.3085,-5.3128,-5.3133,-5.3139,-5.3262,0,0,-5.3157,-5.3159,0,0,0,0,0,0,0,0,-5.3031,-5.3041,-5.3107,-5.3105,-5.3102,-5.3131,-5.3142,-5.3212,-5.3099,-5.3098,-5.3088,-5.3083,-5.3134,-5.3139,-5.3157,-5.3264,-5.3266,-5.3157,-5.3161,-5.3163,-5.3165,0,0,0,0,0,0,0,-5.3027,-5.3038,-5.3158,-5.3108,-5.3105,-5.3082,-5.3085,-5.3155,-5.314,-5.3098,-5.3092,-5.3098,-5.3131,-5.3151,-5.3157,-5.3266,-5.3157,-5.3162,-5.3166,-5.3168,-5.3475,-5.348,0,0,0,0,0,0,-5.3028,-5.3035,-5.3156,-5.3159,-5.3055,-5.3088,-5.3092,-5.3126,-5.3139,-5.3137,-5.3102,-5.3094,-5.3144,-5.315,-5.3158,-5.3302,-5.3163,-5.3168,-5.3172,-5.3471,-5.3476,-5.3481,0,0,0,0,0,0,-5.3025,-5.304,-5.3154,-5.3096,-5.3108,-5.3096,-5.3134,-5.3129,-5.3149,-5.3142,-5.3139,-5.3126,-5.314,-5.315,-5.3237,-5.3303,-5.3171,-5.3176,-5.3465,-5.3472,-5.3479,-5.3592,0,0,0,0,0,0,-5.3021,-5.3039,-5.3087,-5.3097,-5.3112,-5.3234,-5.3138,-5.3133,-5.3159,-5.3149,-5.3163,-5.3161,-5.3138,-5.3229,-5.3243,-5.3308,-5.3181,-5.3459,-5.3468,-5.3477,-5.3583,-5.3602,-5.3619,0,0,0,0,0,-5.3015,-5.3117,-5.309,-5.3105,-5.3172,-5.3238,-5.3246,-5.3218,-5.3165,-5.3212,-5.3208,-5.3161,-5.3293,-5.3238,-5.3253,-5.3321,-5.3455,-5.3466,-5.3476,-5.3574,-5.3598,-5.3619,0,0,0,0,0,0,-5.3113,-5.3117,-5.3088,-5.3196,-5.3218,-5.3223,-5.3282,-5.3245,-5.3281,-5.327,-5.3233,-5.3236,-5.333,-5.3334,-5.3273,-5.344,-5.3365,-5.3379,-5.3435,-5.3457,-5.3475,-5.3472,-5.3186,0,0,0,0,0,-5.3148,-5.3203,-5.3203,-5.3298,-5.3311,-5.3295,-5.3322,-5.3299,-5.3319,-5.3328,-5.3329,-5.335,-5.3395,-5.3427,-5.3469,-5.3583,-5.3584,-5.3637,-5.3655,-5.367,-5.3683,-5.3742,-5.3765,-5.3516,-5.3516,-5.3516,0,0,-5.3219,-5.3228,-5.3265,-5.3318,-5.3332,-5.3388,-5.3303,-5.3366,-5.3407,-5.3337,-5.3419,-5.3421,-5.3441,-5.3542,-5.3586,-5.3548,-5.3752,-5.3684,-5.3696,-5.37,-5.3755,-5.3779,-5.38,-5.3523,-5.3522,-5.3521,0,0,-5.3378,-5.3391,-5.3472,-5.3488,-5.351,-5.3498,-5.3518,-5.3529,-5.3528,-5.361,-5.3558,-5.3605,-5.3686,-5.3702,-5.372,-5.3885,-5.3842,-5.3899,-5.3995,-5.4053,-5.4073,-5.409,-5.4148,-5.4169,-5.3912,-5.3912,-5.3912,0,-5.3464,-5.3548,-5.3518,-5.3585,-5.3609,-5.3549,-5.3629,-5.3645,-5.368,-5.3698,-5.3655,-5.3754,-5.3763,-5.3866,-5.3906,-5.3924,-5.3943,-5.3898,-5.4073,-5.409,-5.4105,-5.416,-5.4182,-5.3919,-5.3918,-5.3917,-5.3917,0,-5.3652,-5.3711,-5.3773,-5.3809,-5.384,-5.3914,-5.3893,-5.3928,-5.3902,-5.3894,-5.3978,-5.3987,-5.4029,-5.4052,-5.4026,-5.4151,-5.4127,-5.4079,-5.4002,-5.4136,-5.4187,-5.4208,-5.3929,-5.3926,-5.3924,-5.3922,0,0,-5.3875,-5.3893,-5.3916,-5.3931,-5.3951,-5.3995,-5.4065,-5.4107,-5.4138,-5.4163,-5.422,-5.4289,-5.4245,-5.4266,-5.4242,-5.4293,-5.4422,-5.4239,-5.4239,-5.4272,-5.4558,-5.4594,-5.4619,-5.4394,-5.4398,-5.4401,-5.4556,0,-5.4032,-5.4154,-5.4128,-5.4247,-5.43,-5.4243,-5.4304,-5.4322,-5.4317,-5.436,-5.4353,-5.4402,-5.4341,-5.4353,-5.4401,-5.4396,-5.4479,-5.4384,-5.4445,-5.4448,-5.4442,-5.4645,-5.4683,-5.483,-5.4576,-5.4579,-5.4582,0,-5.4232,-5.4266,-5.4391,-5.4401,-5.4422,-5.4478,-5.4514,-5.4556,-5.4575,-5.4567,-5.4591,-5.4557,-5.4624,-5.4547,-5.4639,-5.4575,-5.4598,-5.4599,-5.4604,-5.4609,-5.4523,-5.4654,-5.4876,-5.4898,-5.4613,-5.461,-5.4608,0,-5.4381,-5.4458,-5.4542,-5.4557,-5.4571,-5.4611,-5.4619,-5.4633,-5.466,-5.4691,-5.4708,-5.4746,-5.4767,-5.4797,-5.4773,-5.4719,-5.4868,-5.4789,-5.4863,-5.4864,-5.4897,-5.4895,-5.5125,-5.4913,-5.4912,-5.4912,-5.4912,0,-5.4559,-5.4637,-5.4609,-5.4661,-5.4747,-5.4715,-5.48,-5.4801,-5.4814,-5.4864,-5.4816,-5.4864,-5.483,-5.4874,-5.4856,-5.4934,-5.4944,-5.4938,-5.4933,-5.4943,-5.4943,-5.4957,-5.4946,-5.4918,-5.4916,-5.4915,-5.4914,0,-5.474,-5.4725,-5.4813,-5.4819,-5.4822,-5.4885,-5.489,-5.4937,-5.4928,-5.4992,-5.5004,-5.499,-5.504,-5.5019,-5.5071,-5.5058,-5.5159,-5.514,-5.5153,-5.5148,-5.5222,-5.5215,-5.5468,-5.5499,-5.5268,-5.5271,-5.5272,0,-5.4855,-5.4914,-5.4927,-5.4957,-5.4968,-5.5018,-5.5045,-5.5016,-5.5046,-5.5071,-5.5115,-5.5161,-5.5195,-5.5277,-5.527,-5.5309,-5.529,-5.5376,-5.5296,-5.5304,-5.5291,-5.5287,-5.5293,-5.5392,-5.5395,-5.5397,-5.5399,0,-5.5059,-5.5049,-5.509,-5.513,-5.5164,-5.5193,-5.5217,-5.5245,-5.5216,-5.5252,-5.5303,-5.533,-5.5383,-5.5428,-5.5463,-5.5469,-5.5429,-5.5424,-5.5443,-5.5454,-5.5459,-5.5456,-5.5196,-5.5419,-5.5417,-5.5415,-5.5414,-5.5413,-5.521,-5.5259,-5.5276,-5.5324,-5.534,-5.5364,-5.5408,-5.5405,-5.5447,-5.5489,-5.5468,-5.5527,-5.5542,-5.5585,-5.5596,-5.564,-5.5606,-5.5634,-5.5641,-5.5648,-5.5657,-5.5453,-5.5646,-5.5646,-5.5645,-5.5645,-5.5644,0,-5.5412,-5.542,-5.5464,-5.55,-5.5538,-5.5498,-5.5523,-5.5556,-5.5609,-5.5627,-5.5662,-5.572,-5.5763,-5.576,-5.5799,-5.5835,-5.5818,-5.5847,-5.5843,-5.5845,-5.5686,-5.5665,-5.586,-5.586,-5.586,-5.586,-5.586,-5.586,-5.5521,-5.5602,-5.5593,-5.5681,-5.5688,-5.5746,-5.5763,-5.5785,-5.5799,-5.5866,-5.5902,-5.59,-5.5909,-5.5949,-5.5986,-5.5984,-5.6,-5.6036,-5.6027,-5.5878,-5.5857,-5.5836,-5.5817,-5.604,-5.604,-5.6182,-5.6184,-5.6185]}]]